Orbital Elements at Epoch 2459200.5 (2020-Dec-17.0) TDB
Reference: JPL 36 (heliocentric ecliptic J2000)
Element | Value | Uncertainty (1-sigma) | Units |
e | .1325278135770766 | 9.0744e-09 | |
a | 2.277894481485454 | 7.1614e-09 | au |
q | 1.976010106294898 | 2.2358e-08 | au |
i | 6.622831680937675 | 6.714e-07 | deg |
node | 89.6929847816302 | 3.5746e-06 | deg |
peri | 148.8355021534812 | 8.1352e-06 | deg |
M | 53.93620363523391 | 7.5276e-06 | deg |
tp | 2459012.361921288407 (2020-Jun-11.86192129) | 2.641e-05 | TDB |
period | 1255.737404030584 3.44 | 5.9218e-06 1.621e-08 | d yr |
n | .2866841417994683 | 1.3519e-09 | deg/d |
Q | 2.57977885667601 | 8.1105e-09 | au |
|
| | Orbit Determination Parameters
Additional Information
|